Regional Weather Roundup
Issued by NWS

Home | Current Version | Previous Version | Text Only | Print | Product List | Glossary On
Versions: 1 2 3 4 5 6 7 8 9 10 11 12 13 14 15 16 17 18 19 20 21 22 23 24 25 26 27 28 29 30 31 32 33 34 35 36 37 38 39 40 41 42 43 44 45 46 47 48 49 50
000
ASUS44 KBMX 280510
RWRAL

ALABAMA REGIONAL WEATHER ROUNDUP
NATIONAL WEATHER SERVICE BIRMINGHAM AL
1100 PM CST FRI FEB 27 2015

NOTE: "FAIR" INDICATES FEW OR NO CLOUDS BELOW 12,000 FEET
WITH NO SIGNIFICANT WEATHER AND/OR OBSTRUCTIONS TO VISIBILITY.

THE REMARK "TC" DENOTES TEMPERATURE IN DEGREES CELSIUS.

ALZ001>011-014-016>018-020-280600-
NORTH ALABAMA

CITY           SKY/WX    TMP DP  RH WIND       PRES   REMARKS
MUSCLE SHOALS  CLOUDY    31  13  47 NE7       30.54F WCI  24
HUNTSVILLE     CLOUDY    31  16  54 NE10      30.52F WCI  22
DECATUR        CLOUDY    29  13  51 N8        30.54S WCI  21
HALEYVILLE       N/A     28  14  55 NE6       30.50F WCI  22
GADSDEN        CLOUDY    34  19  55 N6        30.48S WCI  29
$$

ALZ012-013-022-023-030>036-040>044-280600-
WEST CENTRAL ALABAMA

CITY           SKY/WX    TMP DP  RH WIND       PRES   REMARKS
TUSCALOOSA     PTCLDY    34  18  52 NE10      30.50F WCI  26
$$

ALZ015-024>027-033>036-040>044-280600-
CENTRAL ALABAMA

CITY           SKY/WX    TMP DP  RH WIND       PRES   REMARKS
BIRMINGHAM     MOCLDY    32  19  58 N5        30.51S WCI  27
MONTGOMERY     CLEAR     38  24  57 N7        30.47R WCI  33
SHELBY CO ARPT PTCLDY    36  21  54 VRB6      30.48S WCI  31
MAXWELL AFB    CLEAR     37  25  60 N9        30.45S WCI  30
GREENVILLE     FAIR      36  26  67 N6        30.42S WCI  31
$$

ALZ019-021-028-029-037-038-045>048-280600-
EAST CENTRAL ALABAMA

CITY           SKY/WX    TMP DP  RH WIND       PRES   REMARKS
ANNISTON       CLOUDY    34  20  56 E3        30.48S
ALEXANDER CITY CLEAR     37  17  45 N3        30.45S
AUBURN         CLEAR     34  16  47 N13       30.44S WCI  25
$$

ALZ051>064-280600-
SOUTHWEST ALABAMA

CITY           SKY/WX    TMP DP  RH WIND       PRES   REMARKS
MOBILE         CLEAR     41  27  57 NE12      30.39F
BROOKLEY FIELD PTCLDY    46  32  58 N13       30.41F
EVERGREEN      PTCLDY    39  25  57 N6        30.43F WCI  35
$$

ALZ049-050-065>069-280600-
SOUTHEAST ALABAMA

CITY           SKY/WX    TMP DP  RH WIND       PRES   REMARKS
DOTHAN         PTCLDY    41  31  67 N6        30.43R
OZARK          PTCLDY    42  28  56 N8        30.39R
TROY           CLEAR     38  26  62 N5        30.44R WCI  34
EUFAULA        FAIR      41  27  57 N3        30.42R
$$



USA.gov is the U.S. government's official web portal to all federal, state and local government web resources and services.